Pamplona, Spain

3:56 PM CEST on June 25, 2017 (GMT +0200)
Pamplona

Weather History for LEPP - June, 2013

Change the Weather History Date:

Thursday, June 27, 2013

  Actual Average Record
Temperature  
Mean Temperature 60 °F -  
Max Temperature 71 °F 78 °F 96 °F (2005)
Min Temperature 50 °F 57 °F 48 °F (1997)
Degree Days  
Heating Degree Days 4    
Growing Degree Days 10 (Base 50)    
Moisture  
Dew Point 51 °F    
Average Humidity 66    
Maximum Humidity 94    
Minimum Humidity 50    
Precipitation  
Precipitation 0.00 in - - ()
Sea Level Pressure  
Sea Level Pressure 30.29 in    
Wind  
Wind Speed 9 mph ()    
Max Wind Speed 21 mph    
Max Gust Speed -    
Visibility 6.2 miles    
Events      
Averages and records for this station are not official NWS values.
T = Trace of Precipitation, MM = Missing Value Source: Averaged Metar Reports

Daily Weather History Graph

Daily Weather History Graph

Search for Another Location

Airport or City:

Trip Planner

Search our weather history database for the weather conditions in past years. The results will help you decide how hot, cold, wet, or windy it might be!

Date:

Astronomy

Jun. 27, 2013 Rise Set
Actual Time 6:30 AM CEST 9:48 PM CEST
Civil Twilight 5:55 AM CEST 10:24 PM CEST
Nautical Twilight 5:09 AM CEST 11:09 PM CEST
Astronomical Twilight 4:13 AM CEST 12:05 AM CEST
Moon No Moon Rise 11:21 AM CEST (6/27)
Length of Visible Light 16h 28m
Length of Day
15h 18m
Waning Gibbous, 79% of the Moon is Illuminated
Jun 27
Waning Gibbous
Jun 30
Last Quarter
Jul 8
New
Jul 16
First Quarter
Jul 22
Full

Hourly Weather History & Observations

Time (CEST) Temp. Dew Point Humidity Pressure Visibility Wind Dir Wind Speed Gust Speed Precip Events Conditions
12:00 AM 57.2 °F 50.0 °F 77% 30.30 in - NW 8.1 mph - N/A   Clear
5:30 AM 51.8 °F 48.2 °F 88% 30.30 in - Variable 2.3 mph - N/A   Clear
6:00 AM 50.0 °F 48.2 °F 94% 30.30 in - Calm Calm - N/A   Clear
6:30 AM 50.0 °F 48.2 °F 94% 30.30 in - Calm Calm - N/A   Clear
7:00 AM 50.0 °F 48.2 °F 94% 30.30 in - Calm Calm - N/A   Clear
7:30 AM 51.8 °F 48.2 °F 88% 30.30 in - Calm Calm - N/A   Clear
8:00 AM 53.6 °F 51.8 °F 94% 30.30 in - Calm Calm - N/A   Clear
8:30 AM 57.2 °F 51.8 °F 82% 30.30 in - Calm Calm - N/A   Clear
9:00 AM 59.0 °F 51.8 °F 77% 30.30 in - Variable 1.2 mph - N/A   Clear
9:30 AM 62.6 °F 53.6 °F 72% 30.30 in - NNW 4.6 mph - N/A   Clear
10:00 AM 64.4 °F 50.0 °F 59% 30.30 in - NNW 9.2 mph - N/A   Clear
10:30 AM 66.2 °F 50.0 °F 56% 30.30 in - NNW 13.8 mph - N/A   Clear
11:00 AM 66.2 °F 51.8 °F 60% 30.30 in - NNW 15.0 mph - N/A   Clear
11:30 AM 66.2 °F 50.0 °F 56% 30.30 in - NNW 17.3 mph - N/A   Clear
12:00 PM 68.0 °F 51.8 °F 56% 30.30 in - NW 16.1 mph - N/A   Clear
1:00 PM 68.0 °F 51.8 °F 56% 30.30 in - NNW 17.3 mph - N/A   Clear
1:30 PM 69.8 °F 51.8 °F 53% 30.30 in - NNW 18.4 mph - N/A   Clear
2:00 PM 69.8 °F 53.6 °F 56% 30.30 in 6.2 mi NNW 17.3 mph - N/A   Partly Cloudy
2:30 PM 69.8 °F 51.8 °F 53% 30.30 in 6.2 mi NNW 16.1 mph - N/A   Partly Cloudy
3:00 PM 69.8 °F 51.8 °F 53% 30.30 in 6.2 mi NNW 19.6 mph - N/A   Partly Cloudy
3:30 PM 69.8 °F 51.8 °F 53% 30.27 in 6.2 mi NNW 19.6 mph - N/A   Partly Cloudy
4:00 PM 71.6 °F 51.8 °F 50% 30.27 in 6.2 mi NNW 18.4 mph - N/A   Partly Cloudy
4:30 PM 69.8 °F 51.8 °F 53% 30.27 in 6.2 mi NNW 20.7 mph - N/A   Partly Cloudy
5:00 PM 69.8 °F 51.8 °F 53% 30.27 in 6.2 mi NNW 19.6 mph - N/A   Partly Cloudy
5:30 PM 69.8 °F 51.8 °F 53% 30.27 in 6.2 mi NNW 20.7 mph - N/A   Partly Cloudy
6:00 PM 68.0 °F 51.8 °F 56% 30.27 in 6.2 mi NNW 18.4 mph - N/A   Partly Cloudy
6:30 PM 68.0 °F 51.8 °F 56% 30.27 in 6.2 mi NNW 19.6 mph - N/A   Partly Cloudy
7:00 PM 66.2 °F 51.8 °F 60% 30.27 in 6.2 mi NNW 18.4 mph - N/A   Partly Cloudy
7:30 PM 66.2 °F 51.8 °F 60% 30.27 in 6.2 mi NNW 19.6 mph - N/A   Partly Cloudy
8:00 PM 64.4 °F 51.8 °F 64% 30.27 in 6.2 mi NNW 20.7 mph - N/A   Partly Cloudy
8:30 PM 64.4 °F 50.0 °F 59% 30.27 in 6.2 mi NNW 19.6 mph - N/A   Partly Cloudy
9:00 PM 62.6 °F 50.0 °F 63% 30.30 in 6.2 mi NNW 18.4 mph - N/A   Partly Cloudy
9:30 PM 60.8 °F 50.0 °F 68% 30.30 in 6.2 mi NNW 18.4 mph - N/A   Partly Cloudy
10:00 PM 59.0 °F 50.0 °F 72% 30.30 in 6.2 mi NNW 17.3 mph - N/A   Partly Cloudy
10:30 PM 59.0 °F 50.0 °F 72% 30.30 in 6.2 mi NNW 16.1 mph - N/A   Partly Cloudy
11:00 PM 57.2 °F 48.2 °F 72% 30.33 in 6.2 mi NNW 17.3 mph - N/A   Partly Cloudy
11:30 PM 57.2 °F 48.2 °F 72% 30.33 in 6.2 mi NNW 16.1 mph - N/A   Partly Cloudy